| time (UTC) | temp F | wind direction | speed knots | gust knots | rain 1hr in | rain 24hr in | rain mn in | humidity % | barometer mb |
| 20260507153003 | 46 | 70 | 2.6 | 3.5 | 0.02 | 0.06 | 0.06 | 94 | 1015.4 |
| 20260507152403 | 47 | 69 | 2.6 | 3.5 | 0.02 | 0.06 | 0.06 | 94 | 1015.6 |
| 20260507151804 | 47 | 27 | 2.6 | 3.5 | 0.02 | 0.06 | 0.06 | 94 | 1015.4 |
| 20260507151203 | 47 | 28 | 2.6 | 3.5 | 0.02 | 0.06 | 0.06 | 94 | 1015.4 |
| 20260507150603 | 47 | 40 | 2.6 | 3.5 | 0.04 | 0.06 | 0.06 | 94 | 1015.4 |
| 20260507150004 | 47 | 40 | 2.6 | 3.5 | 0.02 | 0.05 | 0.05 | 94 | 1015.6 |
| 20260507145403 | 47 | 18 | 1.7 | 3.5 | 0.02 | 0.05 | 0.05 | 94 | 1015.4 |
| 20260507144803 | 47 | 14 | 1.7 | 1.7 | 0.02 | 0.05 | 0.05 | 94 | 1015.3 |
| 20260507144203 | 47 | 9 | 1.7 | 1.7 | 0.02 | 0.05 | 0.05 | 94 | 1015.6 |
| 20260507143604 | 47 | 8 | 1.7 | 3.5 | 0.02 | 0.05 | 0.05 | 94 | 1015.2 |
| 20260507143004 | 47 | 18 | 2.6 | 3.5 | 0.01 | 0.04 | 0.04 | 94 | 1015.2 |
| 20260507142403 | 47 | 11 | 2.6 | 3.5 | 0.02 | 0.04 | 0.04 | 94 | 1015.2 |
| 20260507141803 | 46 | 11 | 2.6 | 3.5 | 0.02 | 0.04 | 0.04 | 94 | 1015.1 |
| 20260507141203 | 47 | 35 | 2.6 | 3.5 | 0.02 | 0.04 | 0.04 | 94 | 1015.0 |
| 20260507140603 | 46 | 37 | 2.6 | 3.5 | 0.01 | 0.02 | 0.02 | 94 | 1015.4 |
| 20260507140004 | 46 | 44 | 1.7 | 3.5 | 0.01 | 0.02 | 0.02 | 94 | 1015.0 |
| 20260507135403 | 47 | 38 | 2.6 | 3.5 | 0.01 | 0.02 | 0.02 | 94 | 1015.2 |
| 20260507134803 | 46 | 34 | 2.6 | 3.5 | 0.01 | 0.02 | 0.02 | 94 | 1015.0 |
| 20260507134203 | 46 | 32 | 3.5 | 5.2 | 0.01 | 0.02 | 0.02 | 93 | 1014.8 |
| 20260507133603 | 46 | 27 | 4.3 | 6.1 | 0.01 | 0.02 | 0.02 | 93 | 1015.1 |
| 20260507133003 | 46 | 30 | 3.5 | 6.1 | 0.01 | 0.02 | 0.02 | 93 | 1014.8 |
| 20260507132403 | 46 | 31 | 3.5 | 6.1 | 0.00 | 0.01 | 0.01 | 93 | 1014.8 |
| 20260507131804 | 46 | 43 | 4.3 | 7.0 | 0.00 | 0.01 | 0.01 | 93 | 1014.9 |
| 20260507131203 | 46 | 29 | 4.3 | 7.0 | 0.00 | 0.01 | 0.01 | 93 | 1015.0 |
| 20260507130604 | 46 | 22 | 3.5 | 5.2 | 0.00 | 0.01 | 0.01 | 93 | 1014.9 |
| 20260507130003 | 46 | 24 | 3.5 | 5.2 | 0.00 | 0.01 | 0.01 | 93 | 1014.7 |
| 20260507125403 | 46 | 33 | 3.5 | 5.2 | 0.00 | 0.01 | 0.01 | 93 | 1014.7 |
| 20260507124804 | 47 | 35 | 2.6 | 3.5 | 0.00 | 0.01 | 0.01 | 93 | 1014.6 |
| 20260507124203 | 47 | 10 | 3.5 | 7.0 | 0.00 | 0.01 | 0.01 | 92 | 1014.6 |
| 20260507123603 | 47 | 18 | 4.3 | 7.0 | 0.00 | 0.01 | 0.01 | 92 | 1014.5 |
| 20260507123004 | 47 | 25 | 3.5 | 7.0 | 0.00 | 0.01 | 0.01 | 92 | 1014.8 |
| 20260507122404 | 47 | 30 | 2.6 | 6.1 | 0.00 | 0.01 | 0.01 | 91 | 1014.4 |
| 20260507121804 | 47 | 23 | 4.3 | 7.8 | 0.00 | 0.01 | 0.01 | 91 | 1014.3 |
| 20260507121204 | 47 | 22 | 5.2 | 9.6 | 0.00 | 0.01 | 0.01 | 90 | 1014.4 |
| 20260507120603 | 47 | 27 | 4.3 | 9.6 | 0.00 | 0.01 | 0.01 | 89 | 1014.2 |
| 20260507120004 | 47 | 27 | 4.3 | 7.8 | 0.00 | 0.01 | 0.01 | 88 | 1014.0 |
| 20260507115403 | 47 | 29 | 5.2 | 7.8 | 0.00 | 0.01 | 0.01 | 87 | 1013.9 |
| 20260507114804 | 48 | 48 | 5.2 | 9.6 | 0.00 | 0.01 | 0.01 | 86 | 1013.8 |
| 20260507114203 | 48 | 43 | 6.1 | 9.6 | 0.00 | 0.01 | 0.01 | 86 | 1013.8 |
| 20260507113604 | 47 | 29 | 6.1 | 9.6 | 0.00 | 0.01 | 0.01 | 86 | 1013.8 |
| 20260507113004 | 47 | 13 | 6.1 | 9.6 | 0.00 | 0.01 | 0.01 | 87 | 1013.8 |
| 20260507112403 | 47 | 25 | 6.1 | 9.6 | 0.00 | 0.01 | 0.01 | 86 | 1013.6 |
| 20260507111803 | 47 | 21 | 5.2 | 7.8 | 0.00 | 0.01 | 0.01 | 87 | 1013.8 |
| 20260507111203 | 47 | 16 | 5.2 | 7.8 | 0.00 | 0.01 | 0.01 | 87 | 1013.9 |
| 20260507110603 | 47 | 34 | 5.2 | 7.8 | 0.00 | 0.01 | 0.01 | 88 | 1013.7 |
| 20260507110003 | 47 | 58 | 4.3 | 6.1 | 0.00 | 0.01 | 0.01 | 88 | 1013.7 |
| 20260507105403 | 47 | 56 | 3.5 | 5.2 | 0.00 | 0.01 | 0.01 | 88 | 1013.6 |
| 20260507104803 | 47 | 58 | 4.3 | 7.0 | 0.00 | 0.01 | 0.01 | 88 | 1013.7 |
| 20260507104204 | 47 | 49 | 5.2 | 7.8 | 0.00 | 0.01 | 0.01 | 89 | 1013.5 |
| 20260507103604 | 47 | 37 | 6.1 | 7.8 | 0.00 | 0.01 | 0.01 | 88 | 1013.8 |
| 20260507103004 | 46 | 30 | 6.1 | 9.6 | 0.00 | 0.01 | 0.01 | 88 | 1013.6 |
| 20260507102403 | 47 | 33 | 6.1 | 9.6 | 0.00 | 0.01 | 0.01 | 89 | 1013.8 |
| 20260507101803 | 47 | 36 | 5.2 | 9.6 | 0.00 | 0.01 | 0.01 | 89 | 1013.5 |
| 20260507101203 | 47 | 32 | 4.3 | 6.1 | 0.00 | 0.01 | 0.01 | 90 | 1013.6 |
| 20260507100603 | 47 | 42 | 5.2 | 7.8 | 0.00 | 0.01 | 0.01 | 90 | 1013.3 |
| 20260507100004 | 46 | 47 | 5.2 | 9.6 | 0.00 | 0.01 | 0.01 | 90 | 1013.4 |
| 20260507095403 | 46 | 48 | 4.3 | 7.0 | 0.00 | 0.01 | 0.01 | 90 | 1013.5 |
| 20260507094803 | 46 | 47 | 4.3 | 7.0 | 0.00 | 0.01 | 0.01 | 90 | 1013.4 |
| 20260507094204 | 46 | 44 | 4.3 | 7.8 | 0.00 | 0.01 | 0.01 | 90 | 1013.0 |
| 20260507093603 | 46 | 58 | 5.2 | 7.8 | 0.00 | 0.01 | 0.01 | 90 | 1013.3 |
| 20260507093004 | 46 | 69 | 4.3 | 7.0 | 0.00 | 0.01 | 0.01 | 91 | 1013.0 |
| 20260507092403 | 46 | 68 | 4.3 | 7.0 | 0.00 | 0.01 | 0.01 | 91 | 1013.1 |
| 20260507091803 | 46 | 51 | 3.5 | 6.1 | 0.00 | 0.01 | 0.01 | 92 | 1013.0 |
| 20260507091204 | 46 | 53 | 5.2 | 7.8 | 0.00 | 0.01 | 0.01 | 92 | 1012.8 |
| 20260507090604 | 46 | 50 | 6.1 | 7.8 | 0.00 | 0.01 | 0.01 | 92 | 1012.8 |
| 20260507090005 | 46 | 61 | 7.0 | 9.6 | 0.00 | 0.01 | 0.01 | 92 | 1012.8 |
| 20260507085404 | 46 | 55 | 7.8 | 9.6 | 0.00 | 0.01 | 0.01 | 92 | 1012.5 |
| 20260507084804 | 46 | 43 | 7.0 | 9.6 | 0.00 | 0.01 | 0.01 | 92 | 1012.5 |
| 20260507084204 | 46 | 48 | 6.1 | 7.8 | 0.00 | 0.01 | 0.01 | 92 | 1012.4 |
| 20260507083604 | 46 | 54 | 5.2 | 7.8 | 0.01 | 0.01 | 0.01 | 92 | 1012.2 |
| 20260507083004 | 46 | 44 | 5.2 | 7.8 | 0.01 | 0.01 | 0.01 | 92 | 1012.4 |
| 20260507082404 | 46 | 35 | 6.1 | 9.6 | 0.01 | 0.01 | 0.01 | 92 | 1012.0 |
| 20260507081804 | 46 | 48 | 6.1 | 9.6 | 0.01 | 0.01 | 0.01 | 92 | 1011.9 |
| 20260507081204 | 46 | 49 | 7.0 | 9.6 | 0.01 | 0.01 | 0.01 | 93 | 1012.0 |
| 20260507080604 | 46 | 50 | 7.0 | 9.6 | 0.01 | 0.01 | 0.01 | 93 | 1011.9 |
| 20260507080004 | 45 | 43 | 6.1 | 9.6 | 0.01 | 0.01 | 0.01 | 93 | 1012.0 |
| 20260507075404 | 45 | 39 | 6.1 | 9.6 | 0.01 | 0.01 | 0.01 | 93 | 1011.6 |
| 20260507074804 | 46 | 38 | 5.2 | 9.6 | 0.01 | 0.01 | 0.01 | 93 | 1011.8 |
| 20260507074203 | 45 | 44 | 7.0 | 11.3 | 0.01 | 0.01 | 0.01 | 93 | 1011.7 |
| 20260507073603 | 45 | 33 | 7.0 | 11.3 | 0.00 | 0.00 | 0.00 | 93 | 1011.6 |
| 20260507073004 | 45 | 24 | 5.2 | 7.8 | 0.00 | 0.00 | 0.00 | 93 | 1011.5 |
| 20260507072403 | 45 | 41 | 5.2 | 7.8 | 0.00 | 0.00 | 0.00 | 93 | 1011.5 |
| 20260507071804 | 45 | 36 | 5.2 | 7.8 | 0.00 | 0.00 | 0.00 | 93 | 1011.4 |
| 20260507071203 | 45 | 35 | 6.1 | 7.8 | 0.00 | 0.00 | 0.00 | 93 | 1011.6 |
| 20260507070603 | 45 | 33 | 5.2 | 7.0 | 0.00 | 0.00 | 0.00 | 93 | 1011.3 |
| 20260507070008 | 45 | 44 | 5.2 | 7.0 | 0.00 | 0.00 | 0.00 | 93 | 1011.5 |
| 20260507065403 | 45 | 58 | 5.2 | 6.1 | 0.00 | 0.00 | 0.00 | 92 | 1011.4 |
| 20260507064803 | 45 | 59 | 6.1 | 9.6 | 0.00 | 0.00 | 0.00 | 92 | 1011.3 |
| 20260507064203 | 45 | 48 | 5.2 | 9.6 | 0.00 | 0.01 | 0.00 | 92 | 1011.0 |
| 20260507063604 | 46 | 20 | 5.2 | 7.8 | 0.00 | 0.01 | 0.00 | 92 | 1011.2 |
| 20260507063004 | 45 | 37 | 6.1 | 7.8 | 0.00 | 0.01 | 0.00 | 91 | 1011.1 |
| 20260507062404 | 45 | 43 | 5.2 | 7.8 | 0.00 | 0.01 | 0.00 | 91 | 1011.1 |
| 20260507061803 | 45 | 38 | 5.2 | 7.8 | 0.00 | 0.01 | 0.00 | 91 | 1011.0 |
| 20260507061204 | 45 | 46 | 6.1 | 7.8 | 0.00 | 0.01 | 0.00 | 91 | 1010.9 |
| 20260507060603 | 45 | 45 | 7.0 | 9.6 | 0.00 | 0.01 | 0.00 | 91 | 1011.0 |
| 20260507060004 | 45 | 45 | 7.0 | 9.6 | 0.00 | 0.01 | 0.00 | 91 | 1010.6 |
| 20260507055403 | 45 | 42 | 6.1 | 9.6 | 0.00 | 0.02 | 0.00 | 91 | 1010.5 |
| 20260507054803 | 45 | 43 | 5.2 | 9.6 | 0.00 | 0.02 | 0.00 | 91 | 1010.6 |
| 20260507054203 | 45 | 42 | 4.3 | 7.0 | 0.00 | 0.02 | 0.00 | 91 | 1010.5 |
| 20260507053603 | 45 | 38 | 4.3 | 6.1 | 0.00 | 0.04 | 0.00 | 92 | 1010.7 |
| 20260507053004 | 45 | 44 | 6.1 | 12.2 | 0.00 | 0.04 | 0.00 | 92 | 1010.5 |
| 20260507052404 | 45 | 43 | 7.0 | 12.2 | 0.00 | 0.05 | 0.00 | 92 | 1010.5 |
| 20260507051803 | 45 | 35 | 5.2 | 9.6 | 0.00 | 0.05 | 0.00 | 92 | 1010.6 |
| 20260507051203 | 45 | 33 | 7.0 | 9.6 | 0.00 | 0.05 | 0.00 | 92 | 1010.3 |
| 20260507050603 | 45 | 33 | 6.1 | 7.8 | 0.00 | 0.06 | 0.00 | 92 | 1010.3 |
| 20260507050004 | 45 | 33 | 6.1 | 9.6 | 0.00 | 0.06 | 0.00 | 92 | 1010.3 |
| 20260507045403 | 45 | 26 | 7.0 | 9.6 | 0.00 | 0.07 | 0.00 | 92 | 1010.1 |
| 20260507044804 | 45 | 29 | 7.0 | 9.6 | 0.00 | 0.08 | 0.00 | 91 | 1010.1 |
| 20260507044204 | 44 | 41 | 6.1 | 9.6 | 0.00 | 0.09 | 0.00 | 91 | 1010.1 |
| 20260507043604 | 45 | 46 | 7.0 | 9.6 | 0.00 | 0.12 | 0.00 | 91 | 1010.2 |
| 20260507043004 | 44 | 48 | 7.0 | 9.6 | 0.00 | 0.12 | 0.00 | 91 | 1010.0 |
| 20260507042403 | 44 | 43 | 7.0 | 9.6 | 0.00 | 0.13 | 0.00 | 91 | 1010.1 |
| 20260507041803 | 44 | 48 | 7.0 | 9.6 | 0.00 | 0.14 | 0.00 | 91 | 1010.1 |
| 20260507041204 | 44 | 49 | 6.1 | 7.8 | 0.00 | 0.15 | 0.00 | 91 | 1009.7 |
| 20260507040604 | 44 | 38 | 6.1 | 12.2 | 0.00 | 0.17 | 0.00 | 92 | 1009.7 |
| 20260507040003 | 44 | 51 | 7.0 | 12.2 | 0.00 | 0.18 | 0.00 | 92 | 1009.9 |
| 20260507035404 | 44 | 52 | 6.1 | 7.0 | 0.00 | 0.20 | 0.00 | 92 | 1009.8 |
| 20260507034804 | 44 | 52 | 7.0 | 7.8 | 0.00 | 0.21 | 0.00 | 92 | 1009.8 |
| 20260507034203 | 44 | 47 | 7.0 | 9.6 | 0.00 | 0.22 | 0.00 | 91 | 1010.0 |
| 20260507033604 | 44 | 36 | 6.1 | 9.6 | 0.00 | 0.22 | 0.00 | 91 | 1009.9 |
| 20260507033004 | 45 | 46 | 6.1 | 9.6 | 0.00 | 0.24 | 0.00 | 91 | 1009.7 |
| 20260507032403 | 44 | 61 | 7.8 | 9.6 | 0.00 | 0.25 | 0.00 | 92 | 1009.5 |
| 20260507031804 | 45 | 48 | 6.1 | 7.8 | 0.00 | 0.25 | 0.00 | 92 | 1009.6 |
| 20260507031204 | 45 | 35 | 6.1 | 9.6 | 0.00 | 0.25 | 0.00 | 92 | 1009.5 |
| 20260507030603 | 45 | 44 | 6.1 | 9.6 | 0.00 | 0.25 | 0.00 | 92 | 1009.5 |
| 20260507030004 | 45 | 53 | 4.3 | 7.0 | 0.00 | 0.25 | 0.00 | 92 | 1009.4 |
| 20260507025403 | 45 | 61 | 4.3 | 7.8 | 0.00 | 0.26 | 0.00 | 92 | 1009.5 |
| 20260507024804 | 45 | 46 | 5.2 | 9.6 | 0.00 | 0.26 | 0.00 | 92 | 1009.3 |
| 20260507024203 | 45 | 41 | 6.1 | 9.6 | 0.00 | 0.26 | 0.00 | 91 | 1009.4 |
| 20260507023604 | 45 | 32 | 5.2 | 7.8 | 0.00 | 0.27 | 0.00 | 91 | 1009.3 |
| 20260507023004 | 45 | 38 | 7.8 | 11.3 | 0.00 | 0.27 | 0.00 | 91 | 1009.2 |
| 20260507022403 | 45 | 66 | 7.8 | 11.3 | 0.00 | 0.28 | 0.00 | 91 | 1009.3 |
| 20260507021804 | 45 | 70 | 5.2 | 7.8 | 0.00 | 0.28 | 0.00 | 92 | 1009.1 |
| 20260507021203 | 45 | 49 | 5.2 | 7.0 | 0.00 | 0.30 | 0.00 | 93 | 1009.3 |
| 20260507020603 | 45 | 46 | 6.1 | 9.6 | 0.00 | 0.31 | 0.00 | 94 | 1009.1 |
| 20260507020003 | 45 | 37 | 7.0 | 9.6 | 0.00 | 0.32 | 0.00 | 94 | 1009.0 |
| 20260507015403 | 45 | 35 | 7.0 | 9.6 | 0.00 | 0.32 | 0.00 | 94 | 1009.3 |
| 20260507014804 | 45 | 39 | 7.0 | 9.6 | 0.00 | 0.32 | 0.00 | 94 | 1009.2 |
| 20260507014203 | 45 | 32 | 7.8 | 12.2 | 0.00 | 0.33 | 0.00 | 94 | 1009.1 |
| 20260507013603 | 45 | 33 | 7.0 | 12.2 | 0.00 | 0.33 | 0.00 | 94 | 1009.0 |
| 20260507013004 | 45 | 43 | 6.1 | 11.3 | 0.00 | 0.34 | 0.00 | 94 | 1009.0 |
| 20260507012403 | 46 | 73 | 7.8 | 13.9 | 0.00 | 0.34 | 0.00 | 94 | 1008.7 |
| 20260507011803 | 46 | 62 | 9.6 | 13.9 | 0.00 | 0.35 | 0.00 | 93 | 1008.9 |
| 20260507011203 | 46 | 46 | 6.1 | 9.6 | 0.00 | 0.37 | 0.00 | 92 | 1008.8 |
| 20260507010603 | 47 | 21 | 5.2 | 7.0 | 0.00 | 0.37 | 0.00 | 92 | 1008.6 |
| 20260507010003 | 47 | 27 | 5.2 | 7.0 | 0.00 | 0.38 | 0.00 | 92 | 1008.5 |
| 20260507005403 | 47 | 24 | 7.0 | 11.3 | 0.00 | 0.38 | 0.00 | 91 | 1008.3 |
| 20260507004803 | 48 | 22 | 5.2 | 11.3 | 0.00 | 0.39 | 0.00 | 91 | 1008.3 |
| 20260507004203 | 49 | 39 | 6.1 | 9.6 | 0.00 | 0.40 | 0.00 | 90 | 1008.2 |
| 20260507003604 | 49 | 36 | 7.0 | 9.6 | 0.00 | 0.41 | 0.00 | 90 | 1008.3 |
| 20260507003004 | 49 | 47 | 7.0 | 9.6 | 0.00 | 0.43 | 0.00 | 90 | 1008.3 |
| 20260507002403 | 49 | 42 | 7.8 | 11.3 | 0.00 | 0.44 | 0.00 | 90 | 1007.9 |
| 20260507001803 | 49 | 43 | 7.8 | 12.2 | 0.00 | 0.45 | 0.00 | 89 | 1007.9 |
| 20260507001203 | 49 | 40 | 7.8 | 12.2 | 0.00 | 0.47 | 0.00 | 89 | 1007.9 |
| 20260507000604 | 50 | 41 | 6.1 | 7.0 | 0.00 | 0.51 | 0.00 | 89 | 1008.1 |
| 20260507000004 | 50 | 40 | 4.3 | 7.0 | 0.00 | 0.51 | 0.00 | 89 | 1008.1 |
| 20260506235404 | 50 | 44 | 3.5 | 5.2 | 0.00 | 0.51 | 0.00 | 89 | 1008.0 |
| 20260506234804 | 50 | 47 | 4.3 | 6.1 | 0.00 | 0.52 | 0.00 | 89 | 1007.9 |
| 20260506234204 | 50 | 50 | 4.3 | 6.1 | 0.00 | 0.54 | 0.00 | 89 | 1007.8 |
| 20260506233604 | 50 | 59 | 3.5 | 3.5 | 0.00 | 0.56 | 0.00 | 89 | 1008.1 |
| 20260506233003 | 50 | 56 | 3.5 | 5.2 | 0.00 | 0.56 | 0.00 | 89 | 1008.0 |
| 20260506232404 | 50 | 45 | 4.3 | 6.1 | 0.00 | 0.57 | 0.00 | 89 | 1008.1 |
| 20260506231803 | 50 | 36 | 5.2 | 7.0 | 0.00 | 0.58 | 0.00 | 89 | 1008.1 |
| 20260506231204 | 50 | 30 | 5.2 | 7.0 | 0.00 | 0.58 | 0.00 | 89 | 1008.0 |
| 20260506230604 | 50 | 55 | 4.3 | 6.1 | 0.00 | 0.58 | 0.00 | 89 | 1008.0 |
| 20260506230003 | 50 | 62 | 4.3 | 7.0 | 0.00 | 0.58 | 0.00 | 89 | 1007.9 |
| 20260506225403 | 50 | 45 | 4.3 | 7.0 | 0.00 | 0.58 | 0.00 | 89 | 1008.0 |
| 20260506224804 | 50 | 41 | 4.3 | 7.0 | 0.00 | 0.59 | 0.00 | 89 | 1007.8 |
| 20260506224203 | 50 | 40 | 4.3 | 7.0 | 0.00 | 0.59 | 0.00 | 89 | 1008.1 |
| 20260506223603 | 50 | 56 | 4.3 | 9.6 | 0.00 | 0.59 | 0.00 | 89 | 1008.1 |
| 20260506223003 | 50 | 51 | 6.1 | 9.6 | 0.00 | 0.59 | 0.00 | 89 | 1007.8 |
| 20260506222403 | 50 | 42 | 5.2 | 7.0 | 0.00 | 0.60 | 0.00 | 89 | 1007.9 |
| 20260506221804 | 50 | 52 | 4.3 | 6.1 | 0.00 | 0.60 | 0.00 | 89 | 1007.9 |
| 20260506221203 | 50 | 48 | 4.3 | 7.0 | 0.00 | 0.61 | 0.00 | 89 | 1007.7 |
| 20260506220603 | 51 | 41 | 5.2 | 7.0 | 0.00 | 0.61 | 0.00 | 88 | 1007.6 |
| 20260506220004 | 51 | 44 | 6.1 | 9.6 | 0.00 | 0.63 | 0.00 | 88 | 1007.8 |
| 20260506215403 | 51 | 33 | 5.2 | 7.8 | 0.00 | 0.63 | 0.63 | 88 | 1007.6 |
| 20260506214803 | 51 | 45 | 5.2 | 7.8 | 0.00 | 0.63 | 0.63 | 88 | 1007.8 |
| 20260506214203 | 51 | 50 | 5.2 | 6.1 | 0.00 | 0.64 | 0.63 | 88 | 1007.6 |
| 20260506213603 | 51 | 45 | 4.3 | 6.1 | 0.00 | 0.64 | 0.63 | 88 | 1007.8 |
| 20260506213004 | 51 | 49 | 5.2 | 7.8 | 0.00 | 0.64 | 0.63 | 87 | 1007.8 |
| 20260506212403 | 51 | 38 | 5.2 | 7.8 | 0.00 | 0.64 | 0.63 | 88 | 1007.5 |
| 20260506211803 | 51 | 39 | 7.0 | 9.6 | 0.00 | 0.64 | 0.63 | 88 | 1007.6 |
| 20260506211203 | 51 | 42 | 6.1 | 9.6 | 0.00 | 0.64 | 0.63 | 88 | 1007.4 |
| 20260506210604 | 51 | 38 | 6.1 | 7.8 | 0.00 | 0.64 | 0.63 | 88 | 1007.6 |
| 20260506210004 | 51 | 32 | 6.1 | 11.3 | 0.00 | 0.64 | 0.63 | 87 | 1007.6 |
| 20260506205403 | 51 | 33 | 7.8 | 12.2 | 0.00 | 0.64 | 0.63 | 87 | 1007.5 |
| 20260506204803 | 51 | 55 | 7.0 | 12.2 | 0.00 | 0.64 | 0.63 | 87 | 1007.5 |
| 20260506204203 | 51 | 80 | 7.8 | 11.3 | 0.00 | 0.64 | 0.63 | 87 | 1007.8 |
| 20260506203603 | 51 | 67 | 7.0 | 11.3 | 0.00 | 0.64 | 0.63 | 88 | 1007.5 |
| 20260506203004 | 51 | 52 | 7.0 | 9.6 | 0.00 | 0.64 | 0.63 | 88 | 1007.5 |
| 20260506202404 | 52 | 47 | 7.0 | 9.6 | 0.00 | 0.64 | 0.63 | 88 | 1007.5 |
| 20260506201804 | 52 | 53 | 7.0 | 11.3 | 0.00 | 0.64 | 0.63 | 88 | 1007.4 |
| 20260506201204 | 52 | 47 | 7.0 | 11.3 | 0.00 | 0.64 | 0.63 | 88 | 1007.4 |
| 20260506200604 | 52 | 26 | 7.0 | 9.6 | 0.00 | 0.64 | 0.63 | 88 | 1007.5 |
| 20260506200004 | 52 | 28 | 7.0 | 9.6 | 0.00 | 0.64 | 0.63 | 89 | 1007.5 |
| 20260506195404 | 52 | 45 | 4.3 | 7.0 | 0.00 | 0.64 | 0.63 | 89 | 1007.1 |
| 20260506194803 | 53 | 44 | 6.1 | 7.8 | 0.00 | 0.64 | 0.63 | 89 | 1007.1 |
| 20260506194203 | 53 | 50 | 7.0 | 9.6 | 0.00 | 0.64 | 0.63 | 89 | 1007.1 |
| 20260506193603 | 53 | 44 | 7.0 | 9.6 | 0.00 | 0.64 | 0.63 | 89 | 1006.9 |
| 20260506193003 | 53 | 50 | 5.2 | 7.8 | 0.00 | 0.64 | 0.63 | 89 | 1006.9 |
| 20260506192403 | 53 | 43 | 5.2 | 7.8 | 0.00 | 0.64 | 0.63 | 89 | 1006.8 |
| 20260506191803 | 53 | 34 | 5.2 | 7.8 | 0.00 | 0.64 | 0.63 | 89 | 1006.9 |
| 20260506191203 | 53 | 55 | 6.1 | 9.6 | 0.00 | 0.64 | 0.63 | 89 | 1006.6 |
| 20260506190603 | 53 | 58 | 6.1 | 9.6 | 0.00 | 0.64 | 0.63 | 88 | 1006.6 |
| 20260506190003 | 53 | 35 | 6.1 | 7.8 | 0.00 | 0.64 | 0.63 | 88 | 1006.6 |
| 20260506185404 | 53 | 33 | 7.8 | 9.6 | 0.00 | 0.64 | 0.63 | 88 | 1006.5 |
| 20260506184803 | 53 | 59 | 7.8 | 9.6 | 0.00 | 0.64 | 0.63 | 88 | 1006.4 |
| 20260506184203 | 53 | 43 | 5.2 | 9.6 | 0.00 | 0.64 | 0.63 | 89 | 1006.3 |
| 20260506183604 | 54 | 39 | 5.2 | 7.0 | 0.00 | 0.64 | 0.63 | 90 | 1006.1 |
| 20260506183004 | 54 | 48 | 5.2 | 7.8 | 0.00 | 0.64 | 0.63 | 89 | 1006.3 |
| 20260506182403 | 54 | 32 | 5.2 | 7.8 | 0.00 | 0.64 | 0.63 | 89 | 1006.4 |
| 20260506181803 | 54 | 28 | 4.3 | 7.0 | 0.00 | 0.64 | 0.63 | 89 | 1006.3 |
| 20260506181204 | 54 | 39 | 4.3 | 6.1 | 0.00 | 0.64 | 0.63 | 90 | 1006.2 |
| 20260506180604 | 54 | 33 | 4.3 | 6.1 | 0.00 | 0.64 | 0.63 | 90 | 1006.1 |
| 20260506180004 | 54 | 15 | 4.3 | 7.8 | 0.00 | 0.64 | 0.63 | 90 | 1005.8 |
| 20260506175403 | 54 | 18 | 4.3 | 7.0 | 0.00 | 0.64 | 0.63 | 90 | 1005.9 |
| 20260506174803 | 54 | 14 | 3.5 | 7.0 | 0.00 | 0.64 | 0.63 | 90 | 1005.9 |
| 20260506174203 | 54 | 12 | 3.5 | 5.2 | 0.00 | 0.64 | 0.63 | 90 | 1005.9 |
| 20260506173603 | 54 | 21 | 3.5 | 5.2 | 0.00 | 0.64 | 0.63 | 90 | 1005.7 |
| 20260506173004 | 54 | 25 | 3.5 | 6.1 | 0.00 | 0.64 | 0.63 | 90 | 1005.7 |
| 20260506172403 | 54 | 33 | 5.2 | 7.8 | 0.00 | 0.64 | 0.63 | 90 | 1005.8 |
| 20260506171803 | 54 | 37 | 6.1 | 7.8 | 0.00 | 0.64 | 0.63 | 89 | 1005.7 |
| 20260506171203 | 54 | 44 | 5.2 | 7.8 | 0.00 | 0.64 | 0.63 | 89 | 1005.7 |
| 20260506170603 | 55 | 42 | 6.1 | 7.8 | 0.00 | 0.64 | 0.63 | 89 | 1005.8 |
| 20260506170004 | 55 | 46 | 5.2 | 7.8 | 0.00 | 0.64 | 0.63 | 88 | 1006.1 |
| 20260506165403 | 55 | 47 | 5.2 | 7.0 | 0.00 | 0.64 | 0.63 | 88 | 1005.7 |
| 20260506164804 | 55 | 40 | 7.0 | 9.6 | 0.00 | 0.64 | 0.63 | 89 | 1005.6 |
| 20260506164203 | 55 | 42 | 6.1 | 9.6 | 0.00 | 0.64 | 0.63 | 89 | 1005.8 |
| 20260506163604 | 55 | 34 | 6.1 | 7.8 | 0.00 | 0.64 | 0.63 | 88 | 1005.6 |
| 20260506163004 | 55 | 51 | 7.0 | 11.3 | 0.00 | 0.64 | 0.63 | 88 | 1005.7 |
| 20260506162404 | 56 | 48 | 7.8 | 11.3 | 0.00 | 0.64 | 0.63 | 87 | 1005.4 |
| 20260506161804 | 56 | 46 | 4.3 | 7.8 | 0.00 | 0.64 | 0.63 | 87 | 1005.5 |
| 20260506161204 | 56 | 42 | 4.3 | 6.1 | 0.00 | 0.64 | 0.63 | 87 | 1005.7 |
| 20260506160604 | 56 | 51 | 5.2 | 7.0 | 0.00 | 0.64 | 0.63 | 87 | 1005.8 |
| 20260506160004 | 56 | 43 | 5.2 | 6.1 | 0.00 | 0.64 | 0.63 | 88 | 1005.9 |
| 20260506155404 | 56 | 48 | 6.1 | 7.8 | 0.00 | 0.64 | 0.63 | 87 | 1005.8 |
| 20260506154804 | 55 | 41 | 7.0 | 7.8 | 0.00 | 0.64 | 0.63 | 87 | 1006.0 |
| 20260506154204 | 56 | 34 | 7.0 | 9.6 | 0.00 | 0.64 | 0.63 | 86 | 1005.9 |
| 20260506153604 | 56 | 55 | 7.8 | 11.3 | 0.00 | 0.64 | 0.63 | 86 | 1006.0 |